{"data":{"norad_id":38012,"epoch":"2026-05-25T04:55:51.805344Z","epoch_age_seconds":54313,"freshness":"FRESH","line1":"1 38012U 11076F   26145.20546071  .00000188  00000+0  50186-4 0  9992","line2":"2 38012  98.1974 220.6158 0001261 106.2434 276.9028 14.58553470768645","mean_motion":14.5855347,"eccentricity":0.0001261,"inclination_deg":98.1974,"raan_deg":220.6158,"arg_perigee_deg":106.2434,"mean_anomaly_deg":276.9028,"bstar":5.0186e-5,"rev_number":76864,"period_min":98.727954073566,"perigee_km":696.95628051747,"apogee_km":698.74084407628,"semimajor_km":7075.9855622969,"source":"CELESTRAK","updated_at":"2026-05-25T13:38:12.779888Z"}}